Showing default

RASSVET-3 6, 68365

Orbit data source: Space-Track

RASSVET-3 6, 68365 is a payload satellite owned by Byuro 1440 (CIS) in LEO that was launched on Mon, 23 Mar 2026 UTC via a SOYUZ-2-1B launch vehicle from the Plesetsk Missile And Space Complex (PKMTR). Payload-class satellites include a variety of spacecraft equipped with specific instruments for various scientific and technological missions. These include communications satellites like Starlink; space stations such as the ISS; scientific satellites like the Hubble; Earth observation satellites from companies like Planet Labs, Umbra, and HawkEye 360; GPS; miniature CubeSats for education and research; and military/defense satellites.

Loading next visibility...
Identifier
68365, 2026-061F
Orbit
LEO
Country
Flag of CISCIS
Related business
Manufacturer
Byuro 1440
Mission
Operational spacecraft
Bus & Motor
RASSVET-2, Unknown motor
Mass
~370 kg wet, ~370 kg dry
Launch date (UTC)
2026-03-23 (3 months ago)
Launch vehicle
SOYUZ-2-1B
Launch site
Plesetsk Missile And Space Complex (PKMTR)
Object type
Payload
Rocket body
Debris
Shape & HBR
Unknown shape, 1.8 m
Radar Cross Section
Large (>1 m²)

Expand to show TLE details & history
Last TLE update: 7 hours ago

TLE from 7 hours ago
0 RASSVET-3 6
1 68365U 26061F   26169.96443276  .00002773  00000-0  13537-3 0  9999
2 68365  82.2940  12.7516 0000803 152.6817 207.4458 15.17908929 13687
Epoch: 2026-06-18T23:08Z
TLE epoch observation values (Epoch: 2026-06-18T23:08:46.990Z)
Latitude
-0.00007°
Longitude
118.35559°
Altitude
515.731 km
Speed
7.605 km/s
True Right ascension
00h 51m 00s
True Declination
0° 00' 00"
Sunlit
Object was in daylight at epoch
Visualization orbit readout
Latitude
Unknown
Longitude
Unknown
Altitude
Unknown
Speed
Unknown
Apparent Right ascension
Unknown
Apparent Declination
Unknown
Sunlit
N/A
Visualization observer readout
Local Sidereal Time
16:37:16
Azimuth
Unknown
Elevation
Unknown
Doppler factor
Unknown
Orbital elements
Apogee altitude
509.696 km
Perigee altitude
508.59 km
Semi-major axis
6,887.28 km
Eccentricity
0.00008
Inclination
82.294°
RAAN
12.7516°
Arg. of periapsis
152.6817°
True anomaly
207.44156°
Mean anomaly
207.4458°
Eccentric anomaly
207.44368°
Mean motion
3.79727 °/min
Orbital period
94.8 mins
BSTAR
0.00013537
Loading maneuver chart data...
Computing Atmospheric mass density...
Loading historical data...
Loading historical data...
Loading historical data...
Loading historical data...
Loading historical data...
Loading historical data...
Loading historical data...

Documentation

Showing up to 5 results
|